Time,TemperatureF,DewpointF,PressureIn,WindDirection,WindDirectionDegrees,WindSpeedMPH,WindSpeedGustMPH,Humidity,HourlyPrecipIn,Conditions,Clouds,dailyrainin,SoftwareType,DateUTC
2013-11-21 00:12:00,30.7,26.0,30.54,East,91,1.0,-999.0,83,-99.99,,,0.00,weatherlink.com 1.10,2013-11-21 05:12:00,
2013-11-21 00:27:00,31.1,27.0,30.55,East,96,4.0,-999.0,84,-99.99,,,0.00,weatherlink.com 1.10,2013-11-21 05:27:00,
2013-11-21 00:42:00,31.2,27.0,30.54,ESE,105,4.0,-999.0,84,-99.99,,,0.00,weatherlink.com 1.10,2013-11-21 05:42:00,
2013-11-21 00:57:00,31.0,27.0,30.54,East,98,2.0,-999.0,85,-99.99,,,0.00,weatherlink.com 1.10,2013-11-21 05:57:00,
2013-11-21 01:12:00,30.9,27.0,30.54,East,95,2.0,-999.0,86,-99.99,,,0.00,weatherlink.com 1.10,2013-11-21 06:12:00,
2013-11-21 01:27:00,31.2,28.0,30.54,ESE,113,5.0,-999.0,87,-99.99,,,0.00,weatherlink.com 1.10,2013-11-21 06:27:00,
2013-11-21 01:42:00,31.3,28.0,30.55,ESE,109,5.0,-999.0,86,-99.99,,,0.00,weatherlink.com 1.10,2013-11-21 06:42:00,
2013-11-21 01:57:00,31.4,28.0,30.54,ESE,104,4.0,-999.0,86,-99.99,,,0.00,weatherlink.com 1.10,2013-11-21 06:57:00,
2013-11-21 02:12:00,31.3,28.0,30.54,East,95,4.0,-999.0,86,-99.99,,,0.00,weatherlink.com 1.10,2013-11-21 07:12:00,
2013-11-21 02:27:00,31.3,28.0,30.55,ESE,109,0.0,-999.0,87,-99.99,,,0.00,weatherlink.com 1.10,2013-11-21 07:27:00,
2013-11-21 02:42:00,31.5,28.0,30.54,ESE,105,4.0,-999.0,88,-99.99,,,0.00,weatherlink.com 1.10,2013-11-21 07:42:00,
2013-11-21 02:57:00,31.6,29.0,30.54,ESE,107,5.0,-999.0,89,-99.99,,,0.00,weatherlink.com 1.10,2013-11-21 07:57:00,
2013-11-21 03:12:00,31.7,29.0,30.54,East,88,0.0,-999.0,91,-99.99,,,0.00,weatherlink.com 1.10,2013-11-21 08:12:00,
2013-11-21 03:27:00,31.8,30.0,30.52,ESE,107,0.0,-999.0,91,-99.99,,,0.00,weatherlink.com 1.10,2013-11-21 08:27:00,
2013-11-21 03:42:00,32.3,31.0,30.53,SE,128,5.0,-999.0,93,-99.99,,,0.00,weatherlink.com 1.10,2013-11-21 08:42:00,
2013-11-21 03:57:00,33.2,31.0,30.53,SE,128,0.0,-999.0,91,-99.99,,,0.00,weatherlink.com 1.10,2013-11-21 08:57:00,
2013-11-21 04:12:00,32.5,31.0,30.52,SE,128,2.0,-999.0,92,-99.99,,,0.00,weatherlink.com 1.10,2013-11-21 09:12:00,
2013-11-21 04:27:00,32.7,31.0,30.52,SE,130,0.0,-999.0,93,-99.99,,,0.00,weatherlink.com 1.10,2013-11-21 09:27:00,
2013-11-21 04:42:00,33.1,32.0,30.53,SE,130,4.0,-999.0,94,-99.99,,,0.00,weatherlink.com 1.10,2013-11-21 09:42:00,
2013-11-21 04:57:00,33.3,32.0,30.54,SE,132,4.0,-999.0,95,-99.99,,,0.00,weatherlink.com 1.10,2013-11-21 09:57:00,
2013-11-21 05:12:00,33.0,32.0,30.53,SE,132,4.0,-999.0,94,-99.99,,,0.00,weatherlink.com 1.10,2013-11-21 10:12:00,
2013-11-21 05:27:00,33.4,32.0,30.54,SE,133,0.0,-999.0,96,-99.99,,,0.00,weatherlink.com 1.10,2013-11-21 10:27:00,
2013-11-21 05:42:00,33.0,32.0,30.54,SE,134,4.0,-999.0,96,-99.99,,,0.00,weatherlink.com 1.10,2013-11-21 10:42:00,
2013-11-21 05:57:00,33.5,33.0,30.54,SE,135,0.0,-999.0,97,-99.99,,,0.00,weatherlink.com 1.10,2013-11-21 10:57:00,
2013-11-21 06:12:00,33.7,33.0,30.55,SE,136,0.0,-999.0,97,-99.99,,,0.00,weatherlink.com 1.10,2013-11-21 11:12:00,
2013-11-21 06:27:00,33.7,33.0,30.55,SE,136,0.0,-999.0,97,-99.99,,,0.00,weatherlink.com 1.10,2013-11-21 11:27:00,
2013-11-21 06:42:00,35.4,35.0,30.55,SE,140,1.0,-999.0,98,-99.99,,,0.00,weatherlink.com 1.10,2013-11-21 11:42:00,
2013-11-21 06:57:00,36.1,36.0,30.55,SE,145,2.0,-999.0,98,-99.99,,,0.00,weatherlink.com 1.10,2013-11-21 11:57:00,
2013-11-21 07:12:00,36.4,36.0,30.56,SSE,154,1.0,-999.0,98,-99.99,,,0.00,weatherlink.com 1.10,2013-11-21 12:12:00,
2013-11-21 07:27:00,36.8,36.0,30.56,ESE,107,0.0,-999.0,98,-99.99,,,0.00,weatherlink.com 1.10,2013-11-21 12:27:00,
2013-11-21 07:42:00,37.5,37.0,30.57,SSE,159,6.0,-999.0,98,-99.99,,,0.00,weatherlink.com 1.10,2013-11-21 12:42:00,
2013-11-21 07:57:00,38.6,38.0,30.57,SE,130,2.0,-999.0,98,-99.99,,,0.00,weatherlink.com 1.10,2013-11-21 12:57:00,
2013-11-21 08:12:00,39.3,39.0,30.57,SSW,209,3.0,-999.0,98,-99.99,,,0.00,weatherlink.com 1.10,2013-11-21 13:12:00,
2013-11-21 08:27:00,39.9,39.0,30.57,SW,227,5.0,-999.0,98,-99.99,,,0.00,weatherlink.com 1.10,2013-11-21 13:27:00,
2013-11-21 08:42:00,40.8,40.0,30.56,SSW,196,6.0,-999.0,98,-99.99,,,0.00,weatherlink.com 1.10,2013-11-21 13:42:00,
2013-11-21 08:57:00,41.3,41.0,30.56,South,178,2.0,-999.0,98,-99.99,,,0.00,weatherlink.com 1.10,2013-11-21 13:57:00,
2013-11-21 09:12:00,41.8,42.0,30.56,SSE,157,4.0,-999.0,99,-99.99,,,0.00,weatherlink.com 1.10,2013-11-21 14:12:00,
2013-11-21 09:27:00,41.5,41.0,30.57,SSW,201,3.0,-999.0,99,-99.99,,,0.00,weatherlink.com 1.10,2013-11-21 14:27:00,
2013-11-21 09:42:00,41.8,42.0,30.57,SSE,152,2.0,-999.0,99,-99.99,,,0.00,weatherlink.com 1.10,2013-11-21 14:42:00,
2013-11-21 09:57:00,41.5,41.0,30.57,SSW,201,5.0,-999.0,99,-99.99,,,0.00,weatherlink.com 1.10,2013-11-21 14:57:00,
2013-11-21 10:12:00,41.5,41.0,30.57,SW,217,0.0,-999.0,99,-99.99,,,0.00,weatherlink.com 1.10,2013-11-21 15:12:00,
2013-11-21 10:27:00,41.7,42.0,30.57,SW,219,1.0,-999.0,99,-99.99,,,0.00,weatherlink.com 1.10,2013-11-21 15:27:00,
2013-11-21 10:42:00,42.7,43.0,30.56,SW,219,2.0,-999.0,99,-99.99,,,0.00,weatherlink.com 1.10,2013-11-21 15:42:00,
2013-11-21 10:57:00,43.1,43.0,30.57,SW,219,2.0,-999.0,99,-99.99,,,0.00,weatherlink.com 1.10,2013-11-21 15:57:00,
2013-11-21 11:12:00,43.0,43.0,30.56,SW,221,0.0,-999.0,99,-99.99,,,0.00,weatherlink.com 1.10,2013-11-21 16:12:00,
2013-11-21 11:27:00,43.4,43.0,30.55,SW,221,1.0,-999.0,99,-99.99,,,0.00,weatherlink.com 1.10,2013-11-21 16:27:00,
2013-11-21 11:42:00,45.1,45.0,30.55,West,259,3.0,-999.0,99,-99.99,,,0.00,weatherlink.com 1.10,2013-11-21 16:42:00,
2013-11-21 11:57:00,44.2,44.0,30.54,West,259,3.0,-999.0,98,-99.99,,,0.00,weatherlink.com 1.10,2013-11-21 16:57:00,
2013-11-21 12:12:00,45.4,44.0,30.53,West,259,2.0,-999.0,95,-99.99,,,0.00,weatherlink.com 1.10,2013-11-21 17:12:00,
2013-11-21 12:27:00,46.3,44.0,30.53,SW,235,5.0,-999.0,90,-99.99,,,0.00,weatherlink.com 1.10,2013-11-21 17:27:00,
2013-11-21 12:42:00,46.7,44.0,30.52,South,181,5.0,-999.0,90,-99.99,,,0.00,weatherlink.com 1.10,2013-11-21 17:42:00,
2013-11-21 12:57:00,46.7,44.0,30.52,SW,232,7.0,-999.0,91,-99.99,,,0.00,weatherlink.com 1.10,2013-11-21 17:57:00,
2013-11-21 13:27:00,46.4,44.0,30.50,SW,236,5.0,-999.0,92,-99.99,,,0.00,weatherlink.com 1.10,2013-11-21 18:27:00,
2013-11-21 13:42:00,46.9,44.0,30.50,SW,216,8.0,-999.0,90,-99.99,,,0.00,weatherlink.com 1.10,2013-11-21 18:42:00,
2013-11-21 13:57:00,46.2,44.0,30.50,SSW,208,3.0,-999.0,91,-99.99,,,0.00,weatherlink.com 1.10,2013-11-21 18:57:00,
2013-11-21 14:12:00,46.8,44.0,30.49,SW,216,1.0,-999.0,90,-99.99,,,0.00,weatherlink.com 1.10,2013-11-21 19:12:00,
2013-11-21 14:27:00,46.7,44.0,30.48,SW,216,6.0,-999.0,90,-99.99,,,0.00,weatherlink.com 1.10,2013-11-21 19:27:00,
2013-11-21 14:42:00,46.3,44.0,30.48,WSW,242,2.0,-999.0,92,-99.99,,,0.00,weatherlink.com 1.10,2013-11-21 19:42:00,
2013-11-21 14:57:00,46.3,45.0,30.48,SW,224,2.0,-999.0,94,-99.99,,,0.00,weatherlink.com 1.10,2013-11-21 19:57:00,
2013-11-21 15:12:00,45.9,45.0,30.48,West,272,0.0,-999.0,95,-99.99,,,0.00,weatherlink.com 1.10,2013-11-21 20:12:00,
2013-11-21 15:27:00,45.8,45.0,30.47,West,272,3.0,-999.0,97,-99.99,,,0.01,weatherlink.com 1.10,2013-11-21 20:27:00,
2013-11-21 15:42:00,46.4,46.0,30.48,West,272,4.0,-999.0,97,-99.99,,,0.01,weatherlink.com 1.10,2013-11-21 20:42:00,
2013-11-21 15:57:00,47.1,47.0,30.48,South,190,2.0,-999.0,98,-99.99,,,0.01,weatherlink.com 1.10,2013-11-21 20:57:00,
2013-11-21 16:12:00,47.3,47.0,30.48,SW,221,1.0,-999.0,98,-99.99,,,0.01,weatherlink.com 1.10,2013-11-21 21:12:00,
2013-11-21 16:27:00,47.3,47.0,30.47,SSW,211,4.0,-999.0,98,-99.99,,,0.01,weatherlink.com 1.10,2013-11-21 21:27:00,
2013-11-21 16:42:00,47.1,47.0,30.48,South,188,6.0,-999.0,98,-99.99,,,0.02,weatherlink.com 1.10,2013-11-21 21:42:00,
2013-11-21 16:57:00,46.8,46.0,30.48,SSW,200,0.0,-999.0,98,-99.99,,,0.02,weatherlink.com 1.10,2013-11-21 21:57:00,
2013-11-21 17:12:00,46.5,46.0,30.48,SW,218,3.0,-999.0,99,-99.99,,,0.02,weatherlink.com 1.10,2013-11-21 22:12:00,
2013-11-21 17:27:00,46.5,46.0,30.48,SSE,165,6.0,-999.0,98,-99.99,,,0.02,weatherlink.com 1.10,2013-11-21 22:27:00,
2013-11-21 17:42:00,46.5,46.0,30.48,South,178,5.0,-999.0,99,-99.99,,,0.02,weatherlink.com 1.10,2013-11-21 22:42:00,
2013-11-21 18:12:00,45.9,46.0,30.48,SSW,200,2.0,-999.0,99,-99.99,,,0.03,weatherlink.com 1.10,2013-11-21 23:12:00,
2013-11-21 18:27:00,45.8,46.0,30.49,SSW,197,9.0,-999.0,99,-99.99,,,0.03,weatherlink.com 1.10,2013-11-21 23:27:00,
2013-11-21 18:42:00,45.7,46.0,30.49,SW,225,6.0,-999.0,99,-99.99,,,0.03,weatherlink.com 1.10,2013-11-21 23:42:00,
2013-11-21 18:57:00,45.6,45.0,30.49,West,272,1.0,-999.0,99,-99.99,,,0.03,weatherlink.com 1.10,2013-11-21 23:57:00,
2013-11-21 19:12:00,45.6,45.0,30.49,WSW,254,2.0,-999.0,99,-99.99,,,0.04,weatherlink.com 1.10,2013-11-22 00:12:00,
2013-11-21 19:27:00,45.5,45.0,30.48,WSW,254,4.0,-999.0,99,-99.99,,,0.05,weatherlink.com 1.10,2013-11-22 00:27:00,
2013-11-21 19:42:00,45.2,45.0,30.48,SW,216,6.0,-999.0,99,-99.99,,,0.07,weatherlink.com 1.10,2013-11-22 00:42:00,
2013-11-21 19:57:00,45.0,45.0,30.48,SSW,197,10.0,-999.0,99,-99.99,,,0.07,weatherlink.com 1.10,2013-11-22 00:57:00,
2013-11-21 20:12:00,44.7,45.0,30.48,South,173,5.0,-999.0,99,-99.99,,,0.08,weatherlink.com 1.10,2013-11-22 01:12:00,
2013-11-21 20:27:00,44.6,44.0,30.48,South,191,8.0,-999.0,99,-99.99,,,0.08,weatherlink.com 1.10,2013-11-22 01:27:00,
2013-11-21 20:42:00,44.8,45.0,30.47,South,171,6.0,-999.0,99,-99.99,,,0.08,weatherlink.com 1.10,2013-11-22 01:42:00,
2013-11-21 20:57:00,44.7,45.0,30.48,South,180,5.0,-999.0,99,-99.99,,,0.08,weatherlink.com 1.10,2013-11-22 01:57:00,
2013-11-21 21:12:00,44.7,45.0,30.48,SSW,203,7.0,-999.0,99,-99.99,,,0.08,weatherlink.com 1.10,2013-11-22 02:12:00,
2013-11-21 21:27:00,45.3,45.0,30.48,SSW,196,11.0,-999.0,99,-99.99,,,0.08,weatherlink.com 1.10,2013-11-22 02:27:00,
2013-11-21 21:42:00,45.2,45.0,30.48,SW,220,9.0,-999.0,99,-99.99,,,0.08,weatherlink.com 1.10,2013-11-22 02:42:00,
2013-11-21 21:57:00,45.4,45.0,30.48,SW,214,5.0,-999.0,99,-99.99,,,0.08,weatherlink.com 1.10,2013-11-22 02:57:00,
2013-11-21 22:12:00,45.9,46.0,30.47,SSW,192,6.0,-999.0,99,-99.99,,,0.08,weatherlink.com 1.10,2013-11-22 03:12:00,
2013-11-21 22:27:00,46.0,46.0,30.48,SSE,167,8.0,-999.0,99,-99.99,,,0.08,weatherlink.com 1.10,2013-11-22 03:27:00,
2013-11-21 22:42:00,45.8,46.0,30.47,SW,217,5.0,-999.0,99,-99.99,,,0.09,weatherlink.com 1.10,2013-11-22 03:42:00,
2013-11-21 22:57:00,45.9,46.0,30.47,West,266,2.0,-999.0,99,-99.99,,,0.09,weatherlink.com 1.10,2013-11-22 03:57:00,
2013-11-21 23:12:00,45.8,46.0,30.47,SW,235,7.0,-999.0,99,-99.99,,,0.09,weatherlink.com 1.10,2013-11-22 04:12:00,
2013-11-21 23:27:00,45.4,45.0,30.47,SSW,202,2.0,-999.0,99,-99.99,,,0.10,weatherlink.com 1.10,2013-11-22 04:27:00,
2013-11-21 23:42:00,44.8,45.0,30.47,SW,218,5.0,-999.0,99,-99.99,,,0.10,weatherlink.com 1.10,2013-11-22 04:42:00,
2013-11-21 23:57:00,44.7,45.0,30.46,SSW,202,8.0,-999.0,99,-99.99,,,0.11,weatherlink.com 1.10,2013-11-22 04:57:00,